Regional Weather Roundup
Issued by NWS

Home | Current Version | Previous Version | Text Only | Print | Product List | Glossary On
Versions: 1 2 3 4 5 6 7 8 9 10 11 12 13 14 15 16 17 18 19 20 21 22 23 24 25 26 27 28 29 30 31 32 33 34 35 36 37 38 39 40 41 42 43 44 45 46 47 48 49 50
000
ASUS45 KBOU 181307
RWRCO

WEATHER ROUNDUP FOR COLORADO
NATIONAL WEATHER SERVICE DENVER/BOULDER CO
700 AM MDT WED OCT 18 2017

NOTE: "FAIR" INDICATES FEW OR NO CLOUDS BELOW 12000 FEET WITH NO
SIGNIFICANT WEATHER AND/OR OBSTRUCTIONS TO VISIBILITY.

COZ001>005-013-030-031-181400-
...NORTHWEST COLORADO...

CITY           SKY/WX    TMP DP  RH WIND       PRES   REMARKS
CRAIG          FAIR      22  15  75 CALM      30.26R
HAYDEN         FAIR      35  14  42 E13       30.29R WCI  26
MEEKER         FAIR      28  17  63 CALM      30.26R
RABBIT EARS PA FAIR      34   0  23 W7        30.40S WCI  28
STEAMBOAT SPGS FAIR      25  17  71 CALM      30.29R
WALDEN         FAIR      39   5  24 S8        30.30S
$$

COZ006>008-011-181400-
...WEST CENTRAL VALLEYS...

CITY           SKY/WX    TMP DP  RH WIND       PRES   REMARKS
GRAND JUNCTION FAIR      40  15  36 E7        30.21S
MONTROSE       FAIR      33  15  47 S9        30.28R WCI  25
EAGLE          FAIR      26  16  65 CALM      30.34S
RIFLE          FAIR      32  18  56 N3        30.27S
DELTA          FAIR      35  15  45 NE5       30.27R WCI  31
NUCLA          NOT AVBL
$$

COZ017>023-064>068-181400-
...SOUTHWEST COLORADO...

CITY           SKY/WX    TMP DP  RH WIND       PRES   REMARKS
DURANGO        FAIR      30  16  56 CALM      30.28R
CORTEZ         FAIR      29  16  58 NE6       30.26R WCI  23
PAGOSA SPRINGS FAIR      31  14  49 CALM      30.33R
TELLURIDE      NOT AVBL
WOLF CREEK PAS FAIR      36   1  23 CALM      30.55S
$$

COZ009-010-012-014-032>034-037-058>063-181400-
...CENTRAL COLORADO...

CITY           SKY/WX    TMP DP  RH WIND       PRES   REMARKS
ASPEN          FAIR      29  13  51 SW6       30.31F WCI  23
BUENA VISTA    FAIR      32  13  45 W3        30.32R
COPPER MTN     FAIR      37 -11  12 W10       30.49S
BERTHOUD PASS  FAIR      32  21  64 NW39G49   30.42R WCI  16
COTTONWOOD PAS FAIR      46  -6  11 NW6       30.38R
GUNNISON       FAIR      19  12  74 N3        30.41R
KREMMLING      FAIR      23  16  74 CALM      30.36R
LEADVILLE      FAIR      32  -1  24 NE7       30.38S WCI  26
SALIDA         NOT AVBL
SUNLIGHT       FAIR      36   0  21 SW9       30.47S
WILKERSON PASS FAIR      39  -9  12 NW6       30.47R
$$

COZ069>075-181400-
...SAN LUIS VALLEY/SANGRE DE CRISTO MOUNTAINS...

CITY           SKY/WX    TMP DP  RH WIND       PRES   REMARKS
ALAMOSA        FAIR      23  17  78 CALM      30.32R
DEL NORTE      FAIR      38  13  35 W13       30.34R
LA VETA PASS   FAIR      36  10  35 SW17G24   30.50R
SAGUACHE       FAIR      32   9  37 NW13      30.33S WCI  22
$$

COZ035-036-038>040-181400-
...NORTHERN COLORADO FRONT RANGE...

CITY           SKY/WX    TMP DP  RH WIND       PRES   REMARKS
DENVER INTL AP MOCLDY    57  16  20 SW13      30.08R
DMNS CITY PARK   N/A     54  17  23 S8        30.10S
AURORA         MOCLDY    53  18  24 S9        30.11R
FRONT RANGE AP FAIR      57  19  23 SW8       30.10S
ERIE MUNI ARPT FAIR      51  22  31 S5        30.12S
BOULDER MUN AP FAIR      63  10  13 S9G17     30.06S
CENTENNIAL     MOCLDY    56  12  17 SW10      30.12S
BROOMFIELD     MOCLDY    64   9  11 W14G21    30.10S
FORT COLLINS   FAIR      46  30  53 S3        30.07R
LONGMONT       FAIR      51  25  36 NE6       30.08S
$$

COZ041-046-047-076>085-087-088-181400-
...PIKES PEAK/PALMER DIVIDE AND SOUTHERN FOOTHILLS...

CITY           SKY/WX    TMP DP  RH WIND       PRES   REMARKS
COLO. SPRINGS  MOCLDY    57  17  21 N12       30.14S
A. F. ACADEMY  FAIR      53   8  16 N9        30.17R
SCHRIEVER AFB  MOCLDY    58  10  15 NW9       30.14R
CHEYENNE MTN   CLOUDY    60  10  14 NW12      30.13R
ELLICOTT       FAIR     N/A N/A N/A NE9       30.13R
FALCON         FAIR      55   7  15 NW9       30.19R
FORT CARSON    FAIR      47  22  37 NW6       30.11R
LIMON          FAIR      32  29  88 CALM      30.10R
MONUMENT HILL  NOT AVBL
CANON CITY     CLEAR     59  12  15 W16       30.12S
WALSENBURG     FAIR      61  14  16 W16G22    30.15R
TRINIDAD       FAIR      43  20  39 W12       30.14R
$$

COZ042>045-048>051-090-091-181400-
...NORTHEAST COLORADO...

CITY           SKY/WX    TMP DP  RH WIND       PRES   REMARKS
GREELEY ARPT   FAIR      38  34  85 NE9       30.08R
AKRON          FAIR      47  24  40 W9        30.04R
BURLINGTON     FAIR      50  32  50 W10       30.02S
WRAY           FAIR      46  30  53 W8        30.01R
YUMA           FAIR      45  28  53 W8        30.02R
STERLING       FAIR      37  30  75 SW5       30.03R
HOLYOKE        FAIR      45  32  61 W8        29.99S
FORT MORGAN    FAIR      42  27  55 W8        30.06R
$$

COZ086-089-092>099-181400-
...SOUTHEAST COLORADO...

CITY           SKY/WX    TMP DP  RH WIND       PRES   REMARKS
PUEBLO         FAIR      42  26  53 W8        30.08R
LA JUNTA       FAIR      44  26  49 SW5       30.06R
LAMAR          FLURRIES  32  28  85 SW5       30.03R WCI  27
SPRINGFIELD      N/A     46  28  49 NW13      30.04S
$$



USA.gov is the U.S. government's official web portal to all federal, state and local government web resources and services.